Regional Weather Roundup
Issued by NWS

Home | Current Version | Previous Version | Text Only | Print | Product List | Glossary On
Versions: 1 2 3 4 5 6 7 8 9 10 11 12 13 14 15 16 17 18 19 20 21 22 23 24 25 26 27 28 29 30 31 32 33 34 35 36 37 38 39 40 41 42 43 44 45 46 47 48 49 50
000
ASUS43 KLSX 011307
RWRMO

WEATHER SUMMARY FOR MISSOURI
NATIONAL WEATHER SERVICE SPRINGFIELD MO
700 AM CST SUN FEB 01 2015

NOTE: "FAIR" INDICATES FEW OR NO CLOUDS BELOW 12,000 FEET WITH NO
       SIGNIFICANT WEATHER AND/OR OBSTRUCTIONS TO VISIBILITY.
       CURRENT SKY AND/OR WEATHER CONDITIONS ARE NOT AVAILABLE FOR
       CHILLICOTHE AND FARMINGTON.

MOZ001>031-035>038-043-044-053-054-011400-
...NORTHERN AND WESTERN MISSOURI...

CITY           SKY/WX    TMP DP  RH WIND       PRES   REMARKS
KANSAS CTY INT LGT RAIN  33  33 100 NE3       29.71S VSB 1/4
KANSAS C DTWN  LGT RAIN  34  33  96 N5        29.72R WCI  30
LEE`S SUMMIT   MIX PCPN  33  33 100 CALM      29.71S FOG
ST JOSEPH      LGT SNOW  32  32 100 NW5       29.74R FOG     WCI  27
CHILLICOTHE      N/A     33  32  96 CALM      29.74S
KIRKSVILLE     CLOUDY    32  32 100 E5        29.74F FOG     WCI  27

$$
MOZ066>068-077>081-088>096-101>105-011400-
...SOUTHWEST MISSOURI...

CITY           SKY/WX    TMP DP  RH WIND       PRES   REMARKS
SPRINGFIELD    CLOUDY    38  37  97 S7        29.71F FOG
JOPLIN         LGT RAIN  42  41  96 SW15      29.73S FOG

$$
MOZ032>034-039>042-045>050-055>058-069>072-011400-
...CENTRAL MISSOURI...

CITY           SKY/WX    TMP DP  RH WIND       PRES   REMARKS
COLUMBIA       CLOUDY    33  32  96 SE8       29.73F FOG     WCI  26
JEFFERSON CITY CLOUDY    35  34  96 E7        29.75F FOG     WCI  29
ROLLA          CLOUDY    35  33  92 SE8       29.73F FOG     WCI  29
SEDALIA        LGT RAIN  34  33  96 S6        29.73F FOG     WCI  29
WHITEMAN AFB   LGT RAIN  34  34 100 S3        29.71R
WARRENSBURG    LGT RAIN  34  32  93 CALM      29.71F
OSAGE BEACH    CLOUDY    37  34  87 SE5       29.73F

$$
MOZ051-052-059>065-011400-
...EAST CENTRAL MISSOURI...

CITY           SKY/WX    TMP DP  RH WIND       PRES   REMARKS
ST LOUIS INTL  LGT RAIN  36  32  85 SE13      29.79F FOG     WCI  27
SPIRIT OF STL  LGT RAIN  35  33  92 SE7       29.78F WCI  29
ST CHARLES     LGT RAIN  34  33  96 SE7       29.79F FOG     WCI  28

$$
MOZ072>076-082>087-097>100-106>115-011400-
...SOUTH CENTRAL AND SOUTHEAST MISSOURI...

CITY           SKY/WX    TMP DP  RH WIND       PRES   REMARKS
CAPE GIRARDEAU LGT RAIN  42  38  85 S12       29.81F
FARMINGTON     CLOUDY    36  34  93 S3        29.82S
POPLAR BLUFF   RAIN      42  39  89 W10       29.82S FOG
WEST PLAINS    CLOUDY    40  38  93 S7        29.76F FOG

$$


USA.gov is the U.S. government's official web portal to all federal, state and local government web resources and services.